COSMOS 1691 DEB, 16269

Orbit data source: Space-Track

COSMOS 1691 DEB, 16269 is space debris in LEO originally from a launch on Wed, 09 Oct 1985 UTC launched from the Plesetsk Missile And Space Complex (PKMTR). Debris objects in space refer to the collection of defunct objects orbiting the Earth. Examples of debris include non-operational satellites, rocket bodies, and fragments generated from explosions, collisions, or faulty payload assembly.

Loading next visibility...
Identifier
16269, 1985-094N
Orbit
LEO
Country
Flag of CISCIS
Related business
Manufacturer
Unknown
Mission
Spacecraft
Bus & Motor
Unknown
Mass
Unknown
Launch date (UTC)
1985-10-09 (41 years ago)
Launch vehicle
Unknown
Launch site
Plesetsk Missile And Space Complex (PKMTR)
Object type
Payload
Rocket body
Debris
Shape & HBR
Unknown shape, 0.2 m
Radar Cross Section
Small (<0.1 m²)

Expand to show TLE details & history
Last TLE update: 11 hours ago

TLE from 11 hours ago
0 COSMOS 1691 DEB
1 16269U 85094N   26127.03116466  .00000033  00000-0  12442-3 0  9997
2 16269  82.6245 337.3233 0011109 207.6316 306.4972 12.62288296868430
Epoch: 2026-05-07T00:44Z
TLE epoch observation values (Epoch: 2026-05-07T00:44:52.626Z)
Latitude
25.77261°
Longitude
-82.34464°
Altitude
1,411.354 km
Speed
7.159 km/s
True Right ascension
10h 15m 01s
True Declination
25° 38' 58"
Sunlit
Object was in daylight at epoch
Visualization orbit readout
Latitude
Unknown
Longitude
Unknown
Altitude
Unknown
Speed
Unknown
Apparent Right ascension
Unknown
Apparent Declination
Unknown
Sunlit
N/A
Visualization observer readout
Local Sidereal Time
19:54:30
Azimuth
Unknown
Elevation
Unknown
Doppler factor
Unknown
Orbital elements
Apogee altitude
1,419.485 km
Perigee altitude
1,402.18 km
Semi-major axis
7,788.97 km
Eccentricity
0.00111
Inclination
82.6245°
RAAN
337.3233°
Arg. of periapsis
207.6316°
True anomaly
306.39478°
Mean anomaly
306.4972°
Eccentric anomaly
306.446°
Mean motion
3.15735 °/min
Orbital period
114.02 mins
BSTAR
0.00012442
Loading maneuver chart data...
Computing Atmospheric mass density...
Loading historical data...
Loading historical data...
Loading historical data...
Loading historical data...
Loading historical data...
Loading historical data...
Loading historical data...

Documentation

Showing up to 5 results
|